Wind_Gust
10 20 17 17 18 19 20 22 21 21 21 20 20 20 22 22 22 23 23 21 22 21 20 20 21 19 19 19 18 18 18 19 19 19 19 19 21 22 21 21 21 21 21 20 21 21 21 20 20 18 18 19 19 19 19 19 18 16 17 17 17 17 18 19 21 23 24 23 24 24 24 25 24 23 24 24 22 20 19 20 18 19 12 18 22
18 15 15 18 20 19 21 21 21 21 22 22 21 21 22 22 22 22 21 22 21 21 20 20 20 19 19 18 18 17 17 18 18 18 19 19 19 20 20 20 20 20 20 20 21 21 20 20 19 18 20 20 20 20 20 20 17 14 14 15 16 17 17 17 19 21 22 22 23 25 25 26 25 25 25 23 23 22 19 20 20 14 14 20 22
19 16 14 18 20 21 21 21 22 22 22 21 22 21 22 22 22 21 21 21 21 20 18 19 19 18 18 17 17 16 16 16 17 17 18 18 18 19 18 19 18 18 21 21 21 20 20 20 19 18 18 19 19 19 19 17 14 13 12 12 12 13 14 15 17 20 22 23 23 25 27 26 25 24 24 24 22 21 20 20 22 20 22 24 21
21 15 14 20 21 20 21 22 21 23 22 21 20 20 20 20 21 21 21 20 20 19 19 18 18 17 17 16 16 16 16 16 16 16 16 17 17 18 18 18 19 19 20 21 20 18 18 18 18 18 17 18 18 18 16 14 13 10 10 11 12 13 13 14 15 18 22 23 23 18 16 16 19 23 22 23 23 22 18 20 21 22 24 24 23
20 17 15 15 16 19 21 21 22 23 22 21 21 22 22 21 21 20 19 19 18 18 18 18 18 17 17 16 16 16 16 15 14 14 15 15 15 17 17 18 19 18 17 18 16 17 17 18 17 17 16 16 15 15 13 11 10 10 10 10 10 10 11 10 11 13 19 26 24 14 14 15 15 22 22 22 22 20 19 19 18 21 23 23 23
18 17 15 15 15 19 21 21 22 24 22 22 22 22 22 22 22 20 20 20 20 19 18 18 17 17 17 16 16 15 15 15 15 14 13 13 12 15 16 17 17 16 16 16 15 16 16 17 17 17 17 16 14 14 11 8 10 10 11 10 10 10 9 9 7 7 5 6 12 9 14 14 15 18 23 21 20 19 19 20 19 21 23 23 22
19 16 15 15 15 17 20 21 24 23 22 22 22 22 22 22 21 20 20 21 20 19 19 18 18 17 17 16 16 15 15 14 14 14 13 12 12 12 16 16 16 16 15 15 14 15 16 16 16 16 16 15 13 12 9 8 10 11 10 10 9 9 8 6 5 3 4 3 6 6 10 14 14 15 22 21 20 20 20 20 19 20 21 21 20
19 16 15 15 14 18 20 22 24 23 23 22 22 22 22 22 22 21 21 20 19 19 19 19 18 18 17 17 16 15 15 15 14 14 13 11 9 10 14 15 15 14 13 13 13 13 14 15 16 16 15 15 13 10 7 8 9 9 10 9 9 9 7 8 7 7 9 3 3 7 11 13 14 16 20 22 21 20 20 20 20 20 19 20 18
19 17 16 17 17 20 20 20 22 25 23 22 22 23 23 22 21 21 21 20 19 19 19 19 19 18 17 16 16 16 16 16 16 16 15 14 15 17 16 14 12 12 11 10 10 9 12 14 15 15 16 15 13 8 7 8 8 9 9 9 10 9 10 11 10 10 8 10 18 13 15 13 14 15 20 22 20 20 19 17 17 21 20 18 17
19 17 17 16 17 19 19 20 22 24 23 22 22 23 22 21 21 21 20 20 19 18 19 19 19 18 17 17 16 16 16 16 17 16 16 16 17 17 16 16 16 14 13 13 12 12 13 16 15 16 16 14 12 7 7 7 8 9 9 10 11 12 12 12 13 10 10 18 17 18 17 16 12 15 21 21 21 20 20 20 16 17 17 21 20
21 19 17 18 18 19 19 20 21 22 22 22 23 23 22 21 22 20 19 19 20 19 18 18 17 17 17 16 16 16 16 16 17 17 17 16 15 14 16 16 14 12 12 11 10 13 17 17 16 16 16 13 10 6 5 6 7 9 9 11 12 13 13 15 13 6 11 19 17 16 19 20 13 13 21 21 20 20 19 20 20 20 19 20 20
22 19 16 16 20 19 19 20 20 21 23 22 22 22 21 21 20 19 19 18 18 18 17 16 15 17 17 16 16 17 16 17 17 17 17 16 15 14 14 14 14 13 12 10 13 17 16 15 16 16 15 13 9 6 5 7 8 9 10 11 11 12 12 12 8 9 11 19 18 15 15 15 14 20 23 22 20 19 19 19 19 20 20 20 19
21 21 17 16 16 17 19 20 21 21 22 22 21 22 21 20 19 19 18 15 16 16 16 16 15 14 15 16 17 16 16 17 17 17 16 15 14 14 13 13 12 13 13 13 15 15 15 15 15 14 13 12 9 6 5 7 8 9 10 11 11 11 12 15 7 5 15 18 19 18 16 15 13 20 22 22 20 19 19 19 19 19 20 19 18
21 20 18 17 16 20 19 20 20 20 20 20 19 18 18 18 18 17 17 16 15 15 15 16 16 15 15 15 16 16 16 16 16 16 16 14 14 14 13 13 11 11 13 12 14 15 15 15 14 13 12 11 9 6 6 7 8 10 11 11 10 11 12 9 8 14 15 18 17 18 16 14 14 18 20 21 20 19 19 19 19 19 19 19 19
24 20 18 17 17 16 21 19 18 19 18 17 17 17 17 17 17 17 16 17 16 15 15 16 16 15 15 16 16 16 16 16 16 16 15 13 13 13 13 13 11 12 12 11 12 14 14 12 11 11 11 10 9 6 5 8 9 10 11 11 11 11 12 10 10 12 18 18 17 18 16 13 16 17 20 20 20 18 18 19 18 18 18 18 18
22 21 19 17 16 15 15 20 18 17 17 17 16 17 17 18 17 18 18 17 16 16 15 14 14 15 14 14 15 15 16 16 16 16 14 13 12 13 13 13 13 12 11 11 11 11 12 11 11 9 9 9 9 8 5 7 10 10 10 10 11 12 13 9 7 10 14 16 16 14 15 15 18 18 18 20 20 19 17 17 18 17 17 18 17
22 21 21 19 16 14 14 14 16 20 18 16 16 16 17 17 18 19 18 18 17 17 17 17 15 14 15 14 13 13 15 15 15 15 14 14 12 13 14 13 13 11 10 10 10 10 11 11 9 8 7 7 8 8 6 6 11 12 10 10 12 12 13 12 10 12 13 16 17 14 12 15 18 17 19 19 19 18 18 17 18 17 16 16 16
21 19 20 18 16 14 13 13 14 14 14 15 15 17 16 18 18 18 18 17 17 17 17 17 16 15 16 15 15 15 15 15 14 14 13 13 13 13 13 13 13 12 10 9 8 8 8 9 8 8 7 6 6 6 6 6 10 11 10 10 11 12 12 11 3 13 15 15 15 12 10 12 17 18 18 19 18 18 18 17 16 17 17 15 16
20 18 17 16 15 14 14 13 12 13 13 11 12 17 19 18 18 19 18 18 18 17 16 15 16 15 15 16 16 17 16 16 14 12 12 13 14 13 13 13 12 11 10 9 8 8 9 8 8 8 8 6 5 5 5 5 9 10 9 9 10 10 13 7 8 14 16 15 13 11 11 15 15 17 19 18 18 17 16 17 17 17 16 15 15
18 18 14 13 14 14 13 13 13 11 10 10 13 13 18 19 18 19 20 19 18 17 16 15 17 19 18 16 17 17 16 16 17 13 12 13 13 10 13 12 11 10 10 9 9 8 9 9 8 7 7 7 6 6 6 5 9 10 9 9 11 11 10 6 15 12 14 14 13 11 13 15 17 18 18 18 17 18 16 15 14 15 15 15 15
15 13 13 14 13 14 13 14 12 11 11 12 11 12 16 19 18 21 21 19 18 18 19 20 19 15 14 14 13 10 9 11 12 11 13 9 10 11 12 12 11 11 11 10 9 8 9 8 7 6 6 6 5 5 6 6 9 10 9 9 11 8 7 9 13 13 13 13 12 12 15 16 17 18 17 17 17 17 17 15 15 15 15 15 15
15 15 13 12 12 12 13 13 14 11 12 12 10 9 13 16 12 13 13 16 16 16 15 13 14 9 12 12 9 8 5 8 10 13 10 11 11 11 11 11 12 12 11 11 10 9 7 7 5 5 4 4 5 2 4 7 10 11 9 8 8 6 6 11 11 13 14 10 9 13 16 16 17 17 17 16 16 16 16 16 15 15 15 14 15
16 14 13 11 10 12 12 12 11 11 13 11 10 9 11 13 10 9 11 12 14 13 11 11 8 9 7 9 7 4 6 8 9 12 12 11 11 11 11 11 11 11 12 11 10 8 6 5 4 4 4 4 2 3 4 7 8 10 8 6 7 8 6 9 12 12 12 11 10 14 14 16 18 16 16 17 16 16 15 17 15 14 14 14 14
15 15 16 8 10 10 12 8 11 11 13 11 10 9 11 12 9 9 9 9 12 12 9 8 8 6 7 7 6 5 6 7 13 16 15 10 9 11 11 11 11 11 11 8 8 7 7 6 6 6 5 4 3 5 6 6 7 7 3 5 9 9 8 8 14 13 10 13 11 14 15 16 15 15 16 17 16 16 16 16 16 14 14 14 13
18 16 14 11 10 11 11 10 11 11 13 12 12 11 11 11 9 13 16 14 9 9 6 4 5 5 5 7 5 5 7 5 6 10 11 9 6 4 4 4 3 4 7 3 2 4 4 4 4 6 6 5 5 6 7 6 7 7 8 6 8 9 10 12 13 12 10 8 10 12 13 13 13 14 16 16 15 16 16 16 15 14 12 13 13
19 16 16 12 10 12 12 13 11 10 12 13 12 14 12 12 12 15 14 12 11 9 8 6 7 6 4 6 5 6 6 7 7 9 9 6 6 5 2 1 2 3 4 5 4 3 5 6 6 5 5 5 7 7 9 8 8 10 9 9 8 12 11 10 13 12 11 10 11 12 12 13 12 13 17 17 15 15 16 16 14 14 12 12 12
19 17 16 12 10 10 14 12 11 10 11 12 13 13 12 13 14 13 13 11 10 12 11 8 6 6 5 5 6 7 8 8 8 8 7 7 6 5 5 5 4 4 4 2 2 3 3 5 6 8 8 4 5 9 12 15 14 12 10 9 21 26 16 12 11 13 11 9 9 13 12 14 13 13 13 16 15 15 16 16 15 14 13 12 12
20 17 14 16 15 16 13 13 12 12 11 13 14 13 12 15 12 14 13 13 12 11 10 9 7 6 5 5 7 7 8 9 6 6 5 5 4 5 5 4 5 6 4 2 3 6 3 3 2 5 7 8 10 12 11 1 12 9 9 21 25 19 8 6 11 11 9 8 8 11 10 7 11 12 12 12 14 15 15 15 14 15 15 13 12
21 19 19 18 19 16 14 14 13 13 10 14 15 16 15 15 14 12 10 13 9 5 7 7 8 7 6 6 7 8 8 8 7 7 6 5 5 4 5 5 4 5 6 3 4 6 5 2 1 3 4 7 7 10 14 10 5 15 19 24 11 11 9 10 7 10 9 8 8 10 10 8 11 13 12 12 13 15 15 14 14 15 15 14 12
20 21 20 16 14 16 15 13 13 13 12 14 16 19 15 13 13 10 9 9 4 4 6 9 8 8 8 7 8 7 6 7 7 7 7 6 6 5 4 5 6 4 3 3 4 4 6 2 1 2 5 6 9 11 12 14 22 24 19 17 19 17 17 14 7 8 9 9 8 10 11 10 10 8 10 12 12 13 13 13 13 13 14 14 14
19 21 18 18 16 17 16 14 14 13 12 16 17 18 17 15 11 9 9 8 7 7 6 8 9 8 8 6 6 8 6 6 7 6 6 7 5 4 4 4 3 5 5 3 2 3 2 3 1 2 5 7 8 7 12 18 25 29 22 16 14 15 14 13 6 6 11 9 7 7 11 11 10 11 11 10 11 11 13 12 12 11 15 15 15
19 19 17 13 13 14 15 14 15 15 14 14 17 16 15 12 12 11 11 9 8 7 6 8 9 8 6 5 5 7 5 4 7 6 5 6 5 5 5 5 4 4 5 5 2 2 2 1 1 1 4 4 6 9 14 16 18 20 20 18 9 5 5 7 7 6 8 9 8 9 9 9 10 12 10 11 8 9 11 12 12 11 13 14 15
13 17 17 17 17 16 15 14 15 14 14 15 16 14 13 12 12 11 10 12 10 7 9 9 9 7 5 4 5 6 5 6 6 6 6 5 4 1 2 4 6 4 6 5 4 4 2 1 1 5 6 6 9 10 12 15 16 16 18 16 11 6 7 10 9 8 7 7 8 8 8 8 7 8 10 9 9 8 7 9 11 11 12 13 12
17 12 13 17 16 15 16 16 14 16 16 16 12 13 12 11 9 9 9 11 8 10 9 9 8 8 8 7 7 5 5 6 6 5 7 5 4 1 4 5 3 4 4 3 5 2 3 2 3 7 8 8 10 8 11 15 10 12 14 14 9 3 7 9 7 5 6 8 8 7 8 8 7 8 7 8 8 8 8 8 10 10 9 12 11
18 14 16 15 14 16 17 17 16 14 15 15 14 11 11 12 13 11 9 11 11 11 9 9 9 9 9 8 7 7 6 8 6 8 8 6 3 1 2 3 4 4 3 2 5 3 6 7 7 8 7 8 9 9 10 11 9 15 12 12 10 10 9 7 5 5 9 9 9 8 8 6 7 7 7 6 6 7 7 7 8 8 8 8 11
19 19 16 14 14 14 16 16 16 16 14 14 11 11 12 10 10 10 11 9 10 9 10 10 10 10 10 10 8 8 6 7 6 7 8 6 5 5 3 2 2 5 4 1 4 6 6 8 7 5 8 8 9 9 8 10 9 14 12 10 6 8 9 7 6 7 7 9 9 8 8 8 6 3 9 5 5 4 5 6 6 4 6 8 6
16 18 18 15 16 15 17 17 16 16 15 14 11 7 10 10 9 10 10 10 10 9 8 8 8 8 8 9 9 8 5 7 6 7 9 5 3 3 3 3 2 5 4 1 3 6 4 7 6 5 6 7 8 8 7 8 11 12 12 11 9 7 9 6 5 7 8 10 9 9 8 7 5 7 6 7 6 6 5 5 6 5 6 6 5
17 16 17 20 19 17 16 14 14 14 14 15 12 9 9 10 10 10 8 9 9 8 9 8 10 10 8 10 8 7 8 7 5 6 9 6 5 5 3 2 2 4 3 2 2 4 5 6 8 6 5 6 7 9 7 5 12 11 11 11 9 9 7 5 7 8 9 11 9 8 8 8 6 5 7 7 6 7 5 5 6 6 5 5 4
15 15 18 15 16 16 15 14 15 15 13 13 10 10 10 9 8 10 9 8 8 10 9 8 11 9 10 10 9 7 5 5 4 8 10 6 5 5 5 4 3 5 4 5 4 5 5 6 7 7 5 7 8 6 7 6 11 12 10 10 8 6 7 11 11 9 9 9 9 8 7 7 7 5 6 6 6 7 6 4 4 3 5 6 6
17 16 15 17 17 16 15 15 13 14 12 11 11 12 11 11 11 8 9 10 11 10 8 8 9 10 11 10 9 9 7 6 5 9 9 6 4 5 5 5 4 4 5 5 3 6 5 3 6 6 7 6 4 6 5 10 12 11 9 8 7 8 9 9 8 12 13 8 5 7 8 6 7 6 5 4 6 5 6 4 4 5 6 7 10
17 17 15 12 19 15 18 15 12 11 13 13 11 13 12 12 7 11 12 12 12 9 8 8 8 10 11 11 10 9 8 6 6 10 9 7 6 7 7 4 3 4 4 5 5 4 4 4 6 5 8 8 4 3 3 7 11 9 8 7 6 6 6 14 17 17 11 9 11 9 6 7 6 7 5 5 5 6 5 6 6 6 8 8 10
19 20 20 20 19 15 13 14 11 9 10 11 11 10 10 14 13 12 8 8 10 14 11 10 10 11 9 8 7 8 8 8 7 7 8 7 6 8 8 6 2 3 4 4 5 5 4 4 7 5 5 6 6 5 8 4 7 8 9 5 7 7 13 17 13 8 8 10 8 6 5 6 5 5 4 3 4 5 5 5 6 7 8 8 8
21 22 19 17 16 14 12 12 12 12 10 9 8 8 6 6 5 9 13 11 8 12 12 10 9 10 9 10 10 8 10 10 8 8 9 8 7 6 6 6 4 6 7 5 5 6 7 7 7 8 7 4 7 4 5 2 9 7 4 9 7 11 10 14 13 13 8 2 7 7 5 5 5 5 6 5 6 6 4 4 6 7 8 7 9
23 19 18 15 13 13 13 12 12 10 10 8 9 8 9 8 7 8 12 12 13 11 10 9 9 10 8 6 5 7 9 10 11 10 7 8 7 8 7 6 7 6 8 8 6 6 5 4 5 4 8 9 6 3 4 2 7 13 8 4 6 9 13 10 15 10 6 6 6 6 4 4 6 6 7 6 4 6 5 4 5 7 6 6 9
22 21 18 16 17 16 14 12 11 10 10 10 11 10 10 11 13 11 14 13 12 12 12 9 7 8 10 7 6 8 10 12 12 11 10 10 8 8 8 8 8 8 7 8 7 8 6 5 5 6 5 9 5 6 3 4 5 3 10 11 6 5 6 13 15 12 7 6 3 4 4 4 6 6 6 4 3 2 4 3 5 9 11 13 13
22 22 27 21 21 17 15 12 10 10 10 10 12 10 12 13 13 15 15 13 12 12 10 10 10 10 10 6 4 6 7 9 12 10 10 10 10 9 8 9 8 8 8 7 7 7 6 6 5 7 6 5 10 8 6 4 4 6 3 5 7 10 15 16 12 13 6 4 2 2 3 3 5 4 4 4 3 2 3 9 11 12 13 13 13
16 19 19 17 15 15 16 12 10 9 8 8 9 10 11 10 7 9 12 14 13 8 7 7 10 8 9 7 7 6 8 9 8 8 8 9 9 7 7 8 7 8 8 6 6 7 9 6 5 8 7 9 8 7 10 6 2 4 4 4 3 3 10 13 11 17 13 6 4 3 3 3 4 6 6 6 5 5 5 11 12 12 11 11 11
15 11 14 9 13 16 16 16 14 13 11 11 8 8 12 9 9 9 9 6 10 8 9 9 8 10 11 7 7 6 5 7 7 6 5 4 6 9 9 8 8 5 7 8 7 6 6 4 9 5 8 9 9 12 8 7 9 8 3 6 6 7 5 9 7 11 18 18 11 7 5 4 4 4 7 8 10 14 14 14 16 14 12 12 11
22 21 14 14 15 18 18 16 17 15 14 13 14 9 11 11 11 11 10 5 7 11 9 9 10 9 10 6 8 8 7 5 6 6 3 4 5 7 6 6 5 10 6 5 4 6 5 10 10 2 7 6 7 8 11 9 7 9 7 3 8 8 8 8 8 8 14 18 8 9 10 5 8 6 7 8 10 12 14 14 13 13 12 12 12
30 23 20 16 21 22 24 23 20 18 18 17 16 13 12 11 12 11 12 8 9 10 10 9 8 7 6 6 8 8 7 9 7 6 7 9 6 5 7 6 6 9 8 6 10 9 9 7 7 7 9 9 6 9 11 10 9 9 7 7 7 6 7 9 8 11 11 7 18 12 7 13 11 5 6 11 12 11 13 14 13 14 13 12 10
27 30 24 14 9 15 27 28 26 22 21 19 17 16 14 13 16 15 13 11 11 12 11 9 7 5 9 7 8 8 7 6 8 6 6 7 6 5 5 5 6 6 6 7 6 12 11 9 12 10 8 9 7 7 9 9 10 8 8 10 9 10 12 11 11 8 9 11 12 10 7 8 13 11 5 7 12 12 13 12 13 12 12 11 10
Wind_Speed
4 11 9 14 15 16 17 18 17 17 17 17 17 17 18 18 18 18 18 17 18 17 16 17 17 16 15 15 15 15 15 15 16 16 16 16 17 17 17 17 17 17 16 16 17 17 17 16 16 15 14 15 15 15 15 14 13 13 13 13 13 14 15 15 17 18 18 18 19 19 18 18 17 17 18 17 17 15 15 15 13 9 6 12 17
10 7 8 11 16 16 17 17 17 17 18 18 17 17 18 18 18 18 18 18 17 17 16 16 16 16 15 15 14 14 14 15 14 15 15 15 15 16 16 16 16 16 16 16 17 17 16 16 15 15 16 15 15 16 15 13 12 11 11 12 13 13 13 14 16 16 17 17 18 20 19 19 18 19 18 17 16 15 14 15 14 8 6 16 17
11 8 7 12 16 17 18 18 18 18 18 18 18 17 18 18 18 18 18 18 17 16 15 15 15 15 15 14 14 13 13 13 14 14 15 15 15 15 15 15 14 15 17 17 17 16 16 16 15 14 14 15 14 14 13 11 10 9 10 10 10 10 11 13 14 16 17 17 18 19 20 20 18 17 18 18 17 15 15 16 16 15 11 18 16
13 7 7 13 18 17 17 18 18 18 18 17 17 17 17 17 18 17 18 17 17 16 15 15 14 14 14 13 13 13 13 13 13 13 13 14 14 15 15 14 15 15 16 17 16 15 15 14 15 14 14 14 13 12 10 10 8 8 8 9 10 10 10 12 13 15 18 18 17 14 8 8 12 16 17 18 17 16 15 15 16 17 19 17 18
13 9 8 9 11 15 17 18 18 18 18 17 17 18 18 17 17 16 16 16 15 15 15 14 14 14 14 13 13 13 13 12 12 12 12 13 12 14 13 15 15 14 14 14 13 13 14 14 13 13 13 13 11 10 8 7 8 8 8 8 8 8 9 8 10 11 16 20 15 8 6 9 8 16 15 17 16 15 13 13 14 17 17 19 18
12 9 8 8 9 12 17 17 18 19 18 18 18 18 18 18 18 16 16 16 16 15 15 14 14 14 14 13 13 12 12 12 12 11 10 11 10 12 13 14 14 13 13 13 12 13 13 13 14 13 12 12 10 7 6 6 7 8 8 8 8 8 7 7 5 5 1 4 10 4 6 8 8 9 16 15 16 15 15 13 15 16 17 17 17
13 8 8 8 8 11 16 18 19 19 18 18 18 18 18 18 17 17 17 17 16 16 15 15 15 14 14 13 12 12 12 12 11 11 11 10 10 10 13 13 13 12 12 12 11 12 13 13 13 12 12 11 9 6 5 6 8 8 8 8 7 7 6 4 3 1 2 2 4 4 5 8 7 7 16 14 15 15 15 14 14 15 15 15 14
11 8 8 8 8 13 16 18 19 19 19 18 18 18 18 18 17 17 17 16 15 15 16 15 15 14 14 13 13 12 12 12 12 11 10 8 7 9 11 12 12 11 11 11 11 11 11 12 12 12 11 10 7 5 5 6 7 7 7 7 7 7 6 6 6 5 4 1 2 4 6 7 8 7 15 15 15 15 15 14 14 14 13 15 14
11 10 9 9 10 16 16 17 18 20 19 18 18 19 18 18 17 17 17 16 15 15 15 15 15 15 14 13 13 13 13 13 13 13 12 11 13 14 13 11 10 10 9 9 8 7 10 11 11 12 12 9 6 5 5 5 6 7 7 7 8 7 8 9 8 8 4 6 8 6 7 8 7 7 13 14 15 15 15 12 13 15 15 13 13
12 10 10 9 10 16 16 17 18 20 18 18 18 19 18 17 17 17 16 16 16 15 15 15 14 14 14 14 13 13 13 13 13 13 13 13 14 14 13 13 12 11 11 10 10 10 11 13 12 12 11 9 6 5 5 5 6 7 7 8 8 9 9 9 10 8 6 9 9 9 8 11 7 7 13 15 15 16 15 15 12 13 12 15 15
13 10 9 10 12 15 16 16 17 18 18 18 19 18 18 17 17 16 16 16 16 15 15 14 14 14 13 13 13 13 13 13 14 13 14 13 12 11 13 13 11 10 10 9 8 11 13 12 12 13 12 8 5 3 4 4 5 6 7 8 9 10 9 10 8 4 7 10 9 8 12 15 8 7 14 15 15 15 15 16 14 15 16 16 16
12 10 9 9 16 16 16 16 16 16 18 18 18 18 17 17 16 15 15 15 15 14 14 13 12 14 13 13 13 13 13 14 14 14 13 13 12 11 11 11 11 11 10 8 11 13 12 12 12 13 12 9 4 3 3 5 6 6 7 8 8 8 9 10 5 4 7 10 10 8 8 9 8 11 17 15 15 14 15 15 15 16 16 15 15
13 12 10 10 10 15 16 17 17 17 18 18 17 18 17 16 16 15 15 13 13 13 13 13 12 12 12 13 13 13 13 13 13 14 13 12 12 12 11 10 10 10 11 11 12 12 12 12 12 11 10 9 5 2 3 5 6 6 7 7 8 8 8 10 1 4 7 10 9 10 10 8 7 16 16 15 14 14 14 14 15 15 15 15 14
12 11 10 10 9 16 16 16 16 17 17 16 16 15 15 15 15 15 14 13 13 12 12 13 12 12 12 12 13 13 13 13 13 13 13 11 11 11 11 10 9 9 10 10 11 12 11 11 10 10 9 9 6 1 4 5 6 6 7 7 8 8 9 6 6 8 7 9 9 10 10 8 8 15 16 15 14 14 14 14 14 15 15 15 15
14 13 11 10 10 10 17 15 15 15 15 14 14 14 14 14 14 14 14 14 13 12 13 13 12 12 12 12 12 13 13 13 12 12 12 10 10 10 11 10 9 10 10 9 10 11 11 9 8 8 9 8 7 2 3 6 6 7 7 7 7 8 8 4 4 6 8 9 8 10 8 7 13 13 16 15 13 12 14 14 13 14 14 14 14
15 14 12 10 9 9 9 15 15 14 14 14 14 14 14 15 15 15 15 14 14 13 12 11 11 11 12 12 11 11 12 13 13 13 12 11 9 10 11 11 10 10 9 9 9 9 9 9 8 7 7 7 7 5 2 6 7 7 7 7 8 9 9 7 3 6 5 7 8 7 7 8 15 15 14 15 15 12 12 13 13 13 13 14 14
13 13 12 12 10 8 8 8 11 17 14 13 13 14 14 14 15 16 15 15 14 14 14 13 12 10 11 12 11 11 12 12 12 11 11 11 10 11 11 11 10 9 8 8 8 9 9 8 7 6 5 5 6 5 3 4 8 8 7 8 9 9 8 8 3 6 5 8 7 7 6 7 14 14 15 15 15 14 13 13 13 13 12 13 13
12 11 11 10 9 8 8 8 9 9 9 10 13 14 14 14 15 15 15 15 14 14 13 13 11 10 11 12 12 13 12 12 11 10 10 10 11 11 11 11 10 9 8 7 7 6 7 7 6 6 6 5 4 4 3 3 8 8 7 8 9 9 8 8 3 6 7 8 7 6 6 9 14 14 14 15 14 14 13 12 12 13 12 12 13
11 11 10 10 10 9 9 8 8 7 7 7 7 11 15 15 15 15 15 15 15 14 13 12 13 11 11 13 13 14 13 13 12 10 9 10 11 11 10 10 10 9 8 7 6 6 7 6 7 6 6 5 3 4 3 4 7 7 6 7 8 8 8 4 5 6 7 7 7 6 6 12 12 14 14 14 14 13 12 13 12 11 12 12 12
9 9 8 8 8 8 8 7 7 7 5 6 8 8 13 15 14 15 16 15 15 13 13 12 12 12 12 12 13 12 12 11 14 9 10 11 11 7 10 10 9 8 8 7 7 6 7 7 6 6 5 5 4 4 4 4 7 7 6 7 8 8 6 2 8 6 6 7 7 6 10 12 14 14 14 13 13 14 13 12 11 11 11 12 12
6 7 7 8 8 8 8 8 7 7 7 7 7 7 10 15 14 17 17 15 14 15 15 14 12 11 10 11 9 6 6 6 7 6 10 6 8 9 9 10 9 8 8 7 7 6 6 6 5 4 4 4 3 3 4 5 7 7 6 6 7 4 4 5 7 6 6 6 6 6 12 13 14 14 13 13 13 13 13 12 11 11 11 10 11
8 7 6 7 7 7 8 7 6 8 7 6 5 5 7 11 7 8 8 10 12 13 10 7 8 4 9 8 5 5 3 5 6 9 6 7 7 9 9 9 9 9 8 7 7 6 5 4 3 2 2 2 3 1 2 5 8 7 5 7 4 2 3 6 6 6 7 6 5 8 13 13 14 13 13 13 13 13 13 12 12 11 10 10 10
7 6 5 5 6 7 7 7 5 7 8 7 6 5 7 8 6 5 6 9 8 7 5 6 4 4 4 5 4 3 4 5 5 7 7 8 7 9 9 8 9 9 8 7 6 4 3 3 2 2 1 1 0 1 2 3 5 7 5 4 4 3 3 5 6 6 6 6 5 11 12 13 14 13 13 13 13 13 12 13 11 11 10 10 10
8 6 6 4 6 6 7 6 6 7 8 6 6 6 7 6 4 5 5 4 4 5 3 4 3 1 4 3 3 2 4 4 9 12 11 6 5 8 9 9 9 8 7 4 4 3 4 3 3 4 2 1 2 2 3 3 3 4 2 3 4 1 4 3 6 6 6 6 6 12 12 12 12 12 13 13 13 13 12 12 12 10 10 9 10
8 7 5 6 6 6 6 6 5 7 8 7 7 6 6 5 5 6 4 3 5 4 4 3 2 2 3 3 2 1 2 2 4 6 6 5 3 3 3 2 1 1 3 2 1 2 3 3 2 2 2 2 2 2 2 3 3 3 3 3 3 3 6 4 6 6 5 5 5 10 11 11 11 11 13 12 12 12 12 12 12 11 9 9 9
9 7 6 5 5 6 7 7 6 7 7 7 7 7 6 6 6 5 6 3 6 5 4 4 4 2 3 3 1 3 3 3 4 5 5 4 3 3 1 1 1 2 2 3 1 1 3 4 3 3 2 3 3 3 3 4 3 4 4 2 2 8 4 4 5 5 5 5 6 10 10 11 9 8 14 12 11 11 12 12 11 11 9 8 8
9 7 6 2 5 7 7 6 6 6 7 7 7 7 6 6 7 7 7 6 5 6 5 4 3 2 3 3 3 3 3 3 4 5 4 4 4 3 3 3 3 3 2 1 1 1 2 3 4 4 3 3 2 3 5 8 6 6 5 2 12 7 5 3 3 5 5 5 5 10 10 12 9 8 10 12 11 11 12 12 11 11 10 8 8
10 9 8 9 9 11 8 7 7 6 7 8 8 7 6 7 7 8 7 7 6 5 3 2 4 4 3 3 3 4 4 4 4 4 3 3 3 3 3 3 3 3 2 1 1 2 2 2 1 2 4 4 5 5 5 1 7 5 6 9 6 6 3 2 1 5 5 5 4 7 8 7 10 10 8 10 11 11 11 11 11 11 11 9 8
12 11 9 10 10 8 9 9 7 7 7 8 9 7 7 7 6 5 5 6 3 3 4 4 4 4 4 2 3 3 4 4 4 4 3 3 3 3 3 3 2 2 3 2 2 3 3 1 0 1 3 4 4 5 7 6 3 9 8 6 6 4 6 5 1 4 4 4 4 6 8 7 10 10 10 10 11 11 11 11 11 11 11 10 9
12 12 11 9 8 8 9 9 8 8 7 8 7 7 7 6 6 5 4 4 2 3 4 5 4 5 4 3 3 3 3 5 4 4 4 4 3 3 2 2 4 2 3 1 2 3 3 2 0 2 3 3 5 6 6 8 13 12 8 9 11 5 2 2 1 3 4 4 4 5 8 8 7 7 9 10 10 10 10 10 10 10 10 10 10
12 12 9 7 6 6 7 9 8 8 7 9 8 8 7 6 5 5 5 4 3 2 4 4 5 4 4 3 4 4 3 3 4 4 3 3 3 2 1 2 2 2 1 2 1 2 1 1 1 2 3 4 4 4 7 10 11 9 8 8 8 7 6 0 3 3 4 4 5 4 6 9 8 9 7 9 8 9 10 9 8 9 11 11 11
11 10 8 7 8 9 9 9 9 8 8 9 10 9 8 6 6 6 6 5 4 3 4 4 4 4 4 3 3 4 3 3 4 3 3 4 3 2 1 2 2 3 3 2 1 1 1 0 1 1 2 3 4 6 7 8 9 8 5 6 4 2 1 4 4 3 3 4 4 4 4 5 8 8 8 8 5 7 8 9 8 8 10 11 11
7 9 9 11 10 9 9 9 9 9 9 9 8 7 7 6 6 5 5 5 5 3 4 5 5 4 3 2 3 3 2 3 3 4 3 3 2 0 1 1 3 3 4 3 2 1 1 1 1 3 3 4 5 6 6 6 8 7 5 4 3 4 4 4 4 4 4 4 4 4 4 4 3 7 8 7 7 5 6 7 9 8 9 10 8
8 7 9 11 9 7 7 7 8 9 8 7 6 6 6 5 5 5 5 6 4 5 5 5 4 4 3 3 3 3 3 4 3 3 3 3 2 1 1 2 2 3 2 2 3 2 2 2 2 4 5 5 6 5 6 7 5 6 6 4 2 2 4 5 4 1 4 4 4 4 4 4 4 4 4 6 6 7 7 7 8 8 7 9 8
8 7 10 10 9 9 8 7 8 8 7 7 6 6 6 5 5 5 5 5 5 5 5 5 5 5 5 5 4 4 4 5 3 4 2 2 2 1 0 1 3 3 2 2 4 3 4 4 3 5 5 4 5 4 6 6 6 8 6 4 3 3 3 4 2 2 5 5 4 4 5 4 3 4 3 3 4 6 6 6 6 6 6 6 8
10 10 8 8 8 9 9 10 10 9 6 6 5 7 7 6 5 5 6 5 5 5 5 5 5 6 6 5 5 4 4 4 4 4 4 3 3 3 0 1 1 3 2 1 2 4 4 4 3 3 4 3 4 4 3 6 5 7 5 5 3 4 4 3 0 4 4 4 4 4 4 4 3 2 4 3 3 3 5 5 5 3 5 6 4
9 10 10 8 8 10 11 11 10 10 8 6 5 5 7 6 6 6 6 6 6 5 5 5 5 5 5 6 6 5 3 4 3 4 4 3 2 2 2 2 1 3 2 1 3 4 3 3 3 3 4 4 4 3 1 5 6 6 4 4 2 3 6 4 3 4 4 4 4 4 5 3 3 4 4 4 3 3 4 4 4 4 5 5 4
11 10 11 10 9 9 9 9 9 9 7 6 5 5 6 6 5 6 5 6 5 5 5 5 6 5 5 5 5 5 5 4 3 3 4 2 3 3 2 2 1 3 2 1 1 3 3 4 4 2 2 3 3 4 1 4 6 6 4 2 3 3 3 3 0 0 4 4 3 4 5 4 3 3 4 4 4 4 3 4 5 5 4 4 4
9 10 11 9 9 9 8 9 10 9 7 6 5 6 6 5 4 5 4 4 4 4 5 5 6 5 6 6 5 4 3 3 3 5 4 2 3 3 2 2 2 3 3 3 3 3 3 3 4 3 3 3 3 3 3 4 6 6 5 3 3 4 4 5 5 5 2 3 3 4 4 4 3 2 3 4 4 4 3 2 2 2 3 6 5
9 8 9 11 10 9 8 8 9 8 7 6 6 6 6 6 6 3 4 5 5 5 5 5 5 6 6 5 5 4 3 2 3 5 4 2 3 3 3 3 3 2 3 3 2 3 2 2 4 4 4 3 2 2 3 6 7 6 4 2 3 4 3 3 4 4 3 1 3 3 3 3 4 4 3 3 4 3 3 2 2 3 3 5 8
10 11 8 6 12 7 7 9 7 7 8 7 6 7 6 6 4 7 7 7 7 5 5 5 5 6 6 6 6 5 4 4 4 5 5 4 4 4 4 3 2 2 2 2 2 2 2 2 3 2 4 3 1 1 2 5 7 4 3 3 4 4 3 7 6 5 2 5 3 0 0 4 4 4 3 3 3 4 3 3 3 4 4 4 7
10 11 10 5 12 9 7 8 6 6 6 7 7 6 6 7 6 6 4 5 5 7 6 6 6 5 5 5 4 5 5 5 4 4 4 4 4 5 5 4 2 2 3 3 3 3 3 2 3 2 2 3 2 3 4 2 3 3 4 2 4 5 8 6 3 4 2 2 1 2 2 2 3 3 2 3 3 3 3 3 4 4 5 4 5
13 14 10 8 10 9 8 7 7 7 6 6 5 4 3 3 2 4 7 4 4 7 6 6 5 6 6 6 6 5 6 5 5 5 5 3 2 3 4 3 3 4 4 3 4 4 4 3 4 4 3 1 1 1 3 1 4 3 2 5 2 5 5 5 6 4 1 2 4 2 1 3 3 3 3 3 2 2 2 3 4 4 5 4 5
13 9 6 9 8 8 8 7 7 6 6 5 5 4 5 5 3 5 5 6 6 5 6 5 6 6 5 4 4 5 5 5 4 5 4 4 3 3 4 4 4 3 5 5 4 4 3 3 3 3 4 5 2 1 2 1 3 6 2 1 3 4 6 5 4 1 3 0 4 2 0 2 3 3 4 4 2 2 2 2 3 4 4 4 5
13 13 11 9 9 10 8 7 6 5 5 5 6 5 5 6 7 7 8 8 6 6 6 5 4 4 4 4 4 5 6 7 5 5 4 6 4 4 4 5 5 5 4 5 5 5 4 3 4 4 3 4 2 1 1 2 2 1 5 4 2 2 2 6 6 2 3 3 2 2 2 3 3 4 3 2 2 2 2 2 3 5 7 8 7
12 12 11 8 7 8 8 6 5 3 4 5 6 4 4 8 8 8 8 7 6 6 6 6 6 6 6 4 3 3 4 6 7 5 5 6 6 5 5 5 5 5 5 4 4 4 3 3 3 5 4 3 5 4 0 2 2 3 1 2 3 3 7 9 6 2 3 2 1 1 2 2 2 3 3 3 1 1 1 5 7 7 7 7 6
6 5 7 5 5 7 8 8 6 5 5 5 4 4 6 5 4 5 7 7 7 4 4 4 5 4 5 4 4 4 5 6 5 5 5 5 4 4 4 5 5 4 4 4 4 4 5 4 2 4 4 4 4 3 6 2 1 1 2 3 2 2 6 6 4 8 5 2 2 1 0 0 2 2 3 3 3 2 4 6 7 7 6 6 6
10 6 3 3 7 10 11 10 8 8 7 6 5 5 7 6 6 5 5 4 5 5 5 4 4 5 6 5 5 4 4 4 4 4 3 3 4 5 5 4 4 3 3 4 4 3 2 3 6 3 5 5 5 6 5 3 4 1 2 3 4 4 3 6 5 6 7 7 3 3 2 2 2 1 2 3 6 8 8 8 8 7 6 6 5
13 13 9 8 7 10 10 10 10 9 8 9 9 6 7 7 7 7 6 3 5 6 5 5 5 5 6 3 5 5 5 4 4 4 2 3 4 4 4 3 3 5 3 3 2 2 1 2 3 2 4 4 4 4 5 5 3 4 2 2 5 4 5 4 5 5 5 8 4 4 4 2 3 3 5 5 6 7 8 7 7 7 7 6 6
18 14 13 9 10 11 12 13 12 10 10 11 10 8 8 7 7 7 8 5 5 6 6 5 4 4 4 4 5 5 5 6 5 4 5 5 3 4 5 4 4 6 4 3 6 5 3 3 1 2 2 3 4 6 6 5 4 4 3 4 3 3 4 4 4 5 4 3 9 6 4 8 6 2 4 7 7 6 7 7 7 8 7 6 5
13 18 15 9 6 8 12 15 13 10 11 11 10 10 9 8 8 9 8 7 7 8 7 5 4 4 5 4 5 5 5 4 5 4 4 4 4 3 4 4 4 3 3 4 4 7 5 4 6 4 3 4 3 4 5 5 5 5 4 5 5 6 6 4 6 4 4 4 5 5 4 4 7 6 2 5 7 6 6 6 7 7 7 6 5
Wind_Direction
116 130 133 130 127 125 123 120 118 118 119 118 118 118 118 117 117 115 112 109 108 107 105 104 103 101 100 101 101 101 101 96 94 92 93 95 98 100 101 102 105 106 106 99 98 96 90 88 86 82 81 78 81 85 88 87 88 89 91 91 91 93 96 99 94 92 93 83 82 79 77 72 73 75 74 73 79 77 75 79 73 72 61 78 81
137 121 126 126 125 123 121 119 119 119 118 119 118 119 119 117 117 116 112 110 108 107 107 104 102 101 101 100 101 101 102 99 97 97 98 98 99 102 105 107 108 109 105 102 98 93 93 90 87 87 83 83 82 83 84 87 88 90 93 95 92 93 92 97 100 100 94 88 86 84 81 78 74 77 76 78 80 84 78 83 89 75 67 77 78
112 114 120 122 124 125 121 121 121 120 119 120 121 120 119 118 117 115 113 110 108 108 106 103 100 99 99 101 102 103 102 102 101 100 101 104 103 102 101 104 102 107 107 101 96 96 94 92 91 89 87 84 82 82 83 85 87 91 92 94 93 92 102 104 104 104 98 92 86 84 85 81 76 71 79 81 80 79 79 76 76 81 73 73 76
112 111 117 125 124 123 123 122 121 121 120 120 122 122 119 118 118 116 114 111 110 107 104 102 99 98 98 100 103 105 104 105 106 106 107 109 110 109 108 106 105 106 104 101 101 99 95 93 94 92 86 84 82 80 83 84 83 79 79 83 86 89 93 107 107 109 103 92 87 85 82 80 77 76 78 81 79 79 81 75 72 75 76 76 75
108 115 115 118 119 121 122 122 123 122 122 123 124 123 121 121 118 115 112 109 108 107 105 104 102 102 102 101 103 105 105 105 107 109 110 108 109 110 111 108 115 113 103 98 100 96 93 93 94 97 89 78 75 76 79 81 76 69 66 67 72 83 94 93 110 117 110 102 86 78 91 88 82 80 74 81 89 85 74 78 84 74 72 74 75
115 118 118 117 119 122 122 124 125 126 125 126 127 125 124 123 120 114 111 110 109 108 109 106 105 104 106 104 104 105 107 106 106 104 102 106 105 109 107 106 104 101 101 103 102 102 94 92 94 94 92 85 80 76 65 62 58 56 53 52 55 63 65 74 95 128 205 333 29 50 75 80 83 84 82 76 77 80 81 83 94 75 71 71 74
117 119 121 117 118 120 123 125 127 126 128 128 128 127 127 125 120 116 112 113 113 113 110 107 106 105 106 107 106 108 109 108 106 109 111 108 104 107 107 107 107 108 107 107 105 100 98 94 95 96 94 88 83 75 58 46 44 41 39 43 48 44 62 64 72 32 33 24 63 70 76 81 83 81 85 79 79 83 91 90 83 79 79 76 73
110 117 116 118 117 123 126 128 129 128 129 129 129 128 128 125 119 115 114 115 114 113 111 109 107 108 108 107 108 107 106 101 99 95 94 96 100 105 110 107 105 108 109 105 105 103 100 96 97 96 95 89 86 78 51 44 37 34 30 30 38 30 26 32 25 348 333 111 117 94 78 78 83 82 81 81 78 80 81 81 75 74 90 86 80
115 116 114 116 120 124 127 128 130 132 130 130 131 131 129 124 119 117 117 116 116 114 112 111 111 111 110 110 110 109 104 101 97 94 98 95 81 72 71 76 89 97 92 84 81 90 99 103 99 101 98 96 85 71 51 33 29 27 21 19 19 11 14 12 359 351 329 112 113 102 89 84 77 79 83 85 90 83 75 72 82 88 88 88 84
115 114 118 119 125 124 125 127 130 131 130 132 134 131 127 122 120 120 118 119 117 115 113 112 113 112 111 109 108 107 100 92 85 82 82 83 79 80 80 77 78 92 97 96 94 101 108 105 109 107 101 89 78 46 37 25 16 11 13 13 8 5 7 5 6 11 74 101 99 93 94 92 91 86 87 90 90 98 101 93 89 90 88 88 86
112 115 119 121 123 124 125 127 129 130 131 133 134 128 124 124 126 124 123 121 116 114 114 115 112 111 110 110 107 106 101 94 86 83 81 81 83 85 87 87 87 84 93 100 105 90 96 108 110 108 107 95 81 59 24 17 4 3 2 2 360 355 357 1 16 11 101 104 104 101 100 97 92 95 94 92 91 87 86 95 96 89 88 88 86
111 115 118 120 125 122 126 128 129 130 132 132 130 127 127 127 127 125 123 118 115 114 115 114 114 113 112 113 111 107 104 97 91 87 84 85 93 94 93 94 95 96 94 87 90 100 105 109 112 112 113 110 94 50 21 352 359 347 351 354 353 349 352 358 14 40 112 103 97 92 85 89 95 97 97 101 100 92 87 84 86 95 92 89 90
119 119 118 120 122 127 128 129 131 132 133 131 129 130 128 128 127 125 119 112 112 113 112 110 108 112 115 116 115 112 104 99 95 92 88 89 92 98 97 95 95 98 96 99 103 105 111 113 115 118 118 114 101 39 350 342 340 341 338 342 346 347 353 358 39 119 114 104 103 99 98 91 98 104 101 97 94 94 93 92 93 92 89 90 88
117 117 122 124 130 130 130 132 131 132 132 129 128 128 129 128 125 119 112 109 108 107 107 106 107 111 115 118 117 113 106 101 100 98 93 91 96 102 102 98 97 100 101 102 111 113 117 120 123 124 120 112 107 30 328 325 323 331 333 337 343 348 359 10 26 114 112 108 104 106 105 106 104 102 101 99 96 99 96 93 91 94 96 94 89
120 123 126 128 129 131 133 130 129 128 128 126 125 128 128 122 118 114 110 106 106 109 111 111 112 113 115 118 117 117 116 111 107 103 100 99 103 104 105 103 101 94 102 114 116 119 119 120 121 123 124 124 121 140 319 305 313 319 321 337 345 339 4 47 39 121 117 110 108 109 109 107 106 103 101 99 98 91 97 98 95 92 89 92 93
123 127 128 127 127 129 126 130 125 123 120 122 127 128 123 120 117 113 109 107 106 105 106 109 111 114 117 116 117 120 116 113 110 109 109 111 110 108 105 104 104 107 113 120 120 124 123 123 127 129 128 128 129 132 232 302 306 310 325 340 339 342 358 25 31 113 111 108 108 106 107 113 112 106 106 104 102 100 97 98 99 98 97 96 94
121 127 130 129 126 120 122 122 125 119 120 128 128 122 120 118 115 114 112 110 109 108 104 106 109 113 115 116 115 112 107 105 107 111 115 117 114 111 111 111 109 111 109 115 121 129 131 127 134 142 149 138 141 146 171 275 296 298 325 344 337 333 351 23 65 123 115 110 112 111 112 109 115 112 108 107 105 102 95 96 99 94 92 94 92
123 127 123 120 115 117 118 119 116 113 125 123 121 120 116 116 115 114 112 110 108 108 111 114 120 127 119 116 116 111 105 107 105 103 108 111 112 111 113 115 119 117 122 125 125 121 126 134 147 162 158 153 156 161 179 229 283 300 321 332 331 328 344 30 95 126 120 114 109 113 116 123 118 117 113 108 107 110 105 97 95 100 100 95 89
122 117 116 116 120 125 122 116 113 121 125 117 115 118 118 118 115 112 109 110 110 113 115 117 126 125 120 121 122 120 118 116 113 107 109 112 111 113 121 125 122 127 134 141 143 147 152 155 164 170 168 168 172 185 200 239 263 287 311 318 321 317 352 77 97 108 112 109 112 112 118 117 114 113 113 112 107 101 102 102 102 97 96 98 98
108 113 109 108 123 123 112 111 121 130 119 108 109 116 122 117 111 111 112 112 114 115 112 108 110 110 115 126 129 126 125 125 126 127 127 121 116 124 129 125 131 136 141 151 162 162 167 173 177 171 172 174 187 183 206 237 268 285 301 311 310 340 14 96 111 111 114 116 116 117 123 120 119 117 115 114 111 109 105 101 98 100 100 100 100
99 87 97 110 119 114 111 115 123 125 112 105 109 116 123 115 114 115 115 117 118 117 114 119 123 128 134 127 112 107 124 130 130 133 131 121 125 132 131 133 139 151 156 158 171 179 175 178 181 176 171 190 201 209 208 238 265 277 296 308 317 24 45 92 114 122 118 115 117 123 125 122 120 119 119 117 116 114 111 107 104 104 103 99 95
116 99 94 116 118 107 109 116 127 123 105 95 92 102 116 113 99 100 109 117 120 123 127 135 136 146 137 117 122 123 122 134 141 137 127 126 133 137 140 144 151 159 161 165 176 187 183 174 183 199 181 195 246 244 270 255 265 272 295 306 323 41 59 121 121 124 114 115 124 128 127 126 121 120 121 122 119 116 112 105 105 107 105 104 102
113 108 105 122 113 107 114 126 137 115 102 95 99 88 94 90 96 110 112 121 120 120 130 130 143 160 116 127 127 135 151 139 145 133 126 133 136 145 148 156 164 165 168 173 179 194 197 193 227 246 238 235 260 239 256 252 265 276 292 313 302 52 77 122 114 109 115 122 122 133 131 126 125 125 123 122 123 120 115 107 104 106 109 108 108
121 125 135 114 112 109 122 136 143 115 110 110 109 95 90 99 121 106 85 76 105 115 111 131 153 141 111 124 133 168 149 142 142 132 131 121 133 147 159 168 174 172 171 164 193 221 241 237 242 256 268 240 197 208 231 245 247 272 267 280 295 83 108 112 107 110 119 124 127 135 133 129 129 132 127 129 124 121 116 108 107 108 112 112 111
122 123 132 140 113 125 147 154 147 126 127 125 123 109 100 105 67 67 100 134 115 111 128 145 140 156 119 123 139 153 59 50 66 80 97 112 117 133 160 159 126 97 145 50 13 333 306 318 311 305 299 277 272 245 230 250 221 228 232 238 277 44 115 112 110 117 114 114 122 128 134 132 130 134 131 128 126 122 117 113 110 111 111 113 112
121 127 152 117 117 150 169 164 148 140 131 128 123 117 105 110 107 141 153 146 135 146 169 164 165 127 80 81 61 41 31 44 62 85 87 103 130 139 120 165 115 75 53 78 31 338 314 324 336 335 307 277 264 264 256 232 213 199 214 217 299 36 74 101 111 112 119 119 120 123 130 128 133 137 129 132 128 122 118 114 112 109 112 113 112
137 134 106 21 138 166 174 151 142 134 125 120 112 107 127 129 146 165 154 175 162 164 175 172 119 88 55 77 82 71 64 61 67 76 92 102 110 121 130 123 121 120 105 119 206 276 286 302 315 303 307 286 275 270 252 237 212 181 196 90 62 79 20 347 99 115 111 114 119 119 126 132 135 131 128 133 128 123 121 119 121 119 113 115 113
122 122 145 177 174 169 162 149 148 132 121 117 117 118 128 159 161 164 166 168 161 164 163 128 100 86 72 80 109 112 106 104 107 109 132 109 130 160 159 145 153 139 127 118 243 257 237 259 288 344 345 345 339 321 305 222 164 160 79 77 117 108 106 8 42 110 115 115 111 111 112 129 133 129 127 127 127 127 124 123 124 124 117 117 118
130 149 171 174 170 160 156 152 134 130 127 123 117 130 159 163 158 153 164 169 141 127 135 107 94 98 100 101 131 132 127 129 136 150 142 138 165 183 168 164 141 136 129 144 185 230 235 237 48 340 348 345 343 351 353 357 24 74 96 116 108 87 57 25 16 121 121 109 103 109 106 98 133 135 137 133 130 132 131 128 128 127 123 125 129
147 161 170 168 160 152 150 141 136 141 134 113 124 153 166 162 152 153 120 140 100 134 127 115 128 135 130 136 135 133 136 143 160 166 152 162 173 195 174 145 138 129 110 135 181 169 197 230 132 29 19 354 12 2 7 15 41 59 44 45 44 23 287 228 196 123 97 99 109 107 93 79 84 124 140 134 137 137 135 131 132 133 133 135 135
155 162 159 143 139 142 152 144 143 138 123 118 145 171 165 157 145 134 143 137 165 145 126 139 143 135 137 151 138 150 165 168 168 169 163 157 175 177 172 123 108 123 137 148 177 160 145 122 73 50 22 19 34 16 26 52 73 84 86 105 141 170 199 214 7 84 129 125 98 82 79 74 73 73 73 135 141 138 135 132 128 135 145 149 141
164 162 139 138 149 162 155 144 145 135 126 148 157 164 155 151 150 137 142 139 146 169 148 125 115 117 132 154 148 155 166 174 176 173 159 155 168 162 167 144 157 150 159 155 192 118 103 88 89 87 69 45 55 45 54 70 82 93 108 123 130 92 78 41 360 62 89 71 70 76 87 89 84 80 77 74 114 144 137 136 133 131 145 147 142
178 157 139 147 158 154 146 142 143 142 150 156 153 157 136 139 134 131 128 145 164 154 121 122 117 119 118 124 147 159 187 186 180 157 137 108 89 56 350 225 170 160 163 167 162 141 118 96 106 85 64 46 57 58 68 75 91 101 102 97 105 130 122 85 28 5 94 107 111 110 97 102 102 93 83 76 59 65 119 133 130 140 134 141 140
167 133 141 152 151 148 145 137 138 134 139 144 150 141 118 123 125 127 139 153 164 137 130 121 126 140 151 163 181 190 182 194 172 115 115 98 91 23 357 349 92 100 84 78 80 112 84 95 81 80 57 53 57 60 81 75 81 96 100 126 157 145 98 106 127 222 110 118 134 130 140 136 114 93 88 90 85 78 99 110 130 139 144 139 144
147 144 153 156 150 146 141 133 122 116 124 149 149 123 118 134 134 146 154 146 140 130 134 139 159 168 164 180 182 190 195 199 176 137 121 121 130 117 27 295 96 90 84 61 63 52 56 58 60 74 64 62 72 66 96 101 97 84 88 90 95 90 84 97 138 154 128 139 136 150 143 98 89 112 101 81 90 96 100 118 124 137 136 131 143
161 159 138 147 145 138 135 127 130 125 151 141 127 127 134 134 147 149 129 133 130 142 151 164 172 172 171 170 177 187 204 198 166 136 133 171 155 156 143 52 59 95 86 68 63 75 64 69 40 72 90 62 81 67 79 102 95 93 84 75 73 97 108 78 183 144 150 133 129 126 106 115 98 130 135 123 109 107 106 106 107 110 133 144 149
160 148 144 151 142 130 124 124 124 123 128 129 122 114 113 125 123 121 130 134 144 158 173 160 160 166 164 159 170 184 195 190 185 132 142 166 153 136 130 114 83 105 89 79 77 104 106 96 66 67 110 107 86 92 79 101 95 94 100 98 109 158 124 135 214 173 133 130 139 119 108 119 153 123 133 151 127 104 96 107 100 72 54 59 58
158 146 148 150 134 122 116 113 110 115 123 126 121 107 101 104 114 122 128 138 152 168 186 166 166 179 151 163 168 183 178 188 156 121 119 110 107 111 103 98 75 85 86 67 114 95 98 111 110 88 96 107 110 121 127 112 108 101 97 104 100 80 91 91 253 130 127 137 141 128 134 156 160 156 130 120 123 125 117 114 109 93 83 79 58
152 135 138 133 117 113 110 108 108 113 119 118 105 93 97 93 98 118 129 140 161 194 196 174 175 160 149 159 157 169 130 129 126 110 115 115 104 103 106 113 97 111 92 72 63 77 75 80 113 95 66 101 129 131 138 101 89 93 81 55 69 46 32 30 33 312 91 150 147 122 123 132 127 109 104 120 128 130 132 126 112 89 71 60 51
129 107 124 122 113 113 115 109 111 120 124 117 115 114 122 132 130 132 135 170 185 192 197 175 153 138 148 149 153 149 140 126 105 115 127 135 126 119 115 102 97 89 108 92 74 85 96 101 118 126 111 80 58 109 118 102 94 98 109 105 98 73 36 68 62 55 336 320 58 51 69 88 90 78 73 79 86 93 99 109 112 92 94 75 73
108 108 86 84 97 95 119 118 123 131 133 132 138 147 139 142 145 163 161 173 179 177 158 143 133 140 146 150 148 147 143 142 117 127 138 142 134 116 112 107 107 114 115 131 151 133 180 172 150 139 132 125 89 242 144 133 124 92 95 110 97 119 97 74 142 165 93 28 56 179 96 75 70 82 81 88 84 84 85 83 99 93 91 85 77
90 80 83 99 119 124 127 134 135 137 139 146 162 167 167 168 160 175 170 171 142 117 111 114 126 130 131 133 131 131 135 135 130 123 127 133 132 118 124 142 137 130 147 145 149 171 194 188 146 131 196 147 148 196 196 133 62 125 128 81 62 69 104 125 83 75 128 138 81 65 47 93 97 99 79 73 98 102 99 104 97 90 82 88 87
77 87 112 107 120 130 148 145 147 142 147 153 165 164 163 159 153 178 148 134 115 135 127 133 122 108 108 118 136 141 140 143 141 133 128 123 127 133 129 140 159 138 135 165 164 176 193 196 180 161 146 81 91 231 229 163 127 132 132 97 99 98 73 63 45 14 19 96 45 29 157 113 106 100 84 42 83 108 113 109 109 103 96 96 92
86 88 117 137 147 148 154 152 145 144 146 157 150 146 137 158 143 127 118 120 138 118 105 105 102 108 112 120 128 142 140 142 144 137 137 136 148 153 144 151 170 164 161 167 177 182 185 192 186 152 150 140 156 304 315 311 127 134 66 134 156 119 108 86 100 300 315 355 142 166 189 111 119 120 126 167 140 121 107 119 109 106 102 85 85
135 148 161 160 166 158 149 140 132 136 139 155 149 144 138 108 99 99 99 93 84 92 100 102 113 123 122 115 142 129 147 150 153 146 153 152 159 155 162 166 171 191 177 173 178 172 183 209 172 138 146 149 116 153 312 336 162 108 143 104 54 61 159 128 124 343 317 351 52 120 154 150 130 126 127 117 102 95 111 100 88 79 74 76 73
133 155 160 166 152 136 126 113 107 122 150 162 153 141 123 118 118 115 108 110 113 114 125 143 140 137 148 162 110 93 76 94 139 156 161 158 169 175 168 164 175 184 186 185 167 149 173 206 199 148 142 168 144 129 75 312 345 334 180 156 167 169 143 159 127 154 292 310 328 36 78 86 111 115 103 103 100 112 111 101 91 88 86 83 85
79 113 132 151 119 117 120 126 143 162 170 157 134 119 99 80 85 118 129 136 131 142 144 143 136 141 120 112 114 89 102 114 116 125 144 160 172 168 171 183 180 181 185 171 173 171 175 183 178 150 160 143 135 129 153 182 0 340 334 45 48 82 128 133 123 131 112 7 353 327 355 133 124 132 138 156 157 103 76 86 92 93 91 92 83
102 96 133 173 162 146 145 153 163 167 163 141 130 143 117 107 99 92 81 97 121 129 120 129 122 124 112 117 118 110 95 98 102 110 129 131 137 161 182 185 179 177 181 182 189 183 157 149 146 175 155 163 151 145 151 163 163 231 346 39 52 57 69 91 107 143 128 123 92 35 61 121 125 195 143 120 112 108 101 93 94 88 86 83 86
140 151 180 178 176 155 156 161 166 162 153 148 146 143 126 127 130 120 101 71 111 118 116 116 117 122 122 114 85 89 77 68 89 111 126 108 109 95 101 100 153 168 158 196 182 147 133 167 172 148 154 161 147 138 141 170 147 175 119 49 66 66 66 77 100 101 126 124 99 116 119 76 86 62 91 105 105 106 108 107 100 98 90 77 77
161 167 160 180 175 165 168 171 168 161 159 157 149 142 128 127 125 132 133 142 138 117 112 114 117 121 113 112 114 97 84 71 61 65 84 71 65 82 71 70 81 120 138 125 95 90 86 137 195 114 162 146 126 139 152 152 148 173 159 145 117 101 72 64 72 101 60 48 136 143 135 119 105 46 76 95 103 103 108 107 99 93 86 82 74
164 154 153 172 196 186 178 174 169 160 161 157 149 141 141 149 148 145 147 150 134 122 113 117 124 91 124 132 124 119 103 99 65 43 63 75 61 54 73 73 81 99 111 111 109 119 159 160 140 167 166 144 148 132 124 136 143 153 150 144 152 158 162 147 152 135 128 126 113 122 128 133 134 120 116 93 107 109 103 99 101 94 100 99 97